Location: Rometta
(44.2000°N, 10.0500°E)
Time: 12:05:32
(UTC+00:00)

Cosmos 1602 Rocket - Pass Details

Date: 20 January 2021
Orbit: 604 x 633 km, 82.5° (Epoch: 07 March)

Event Time Altitude Azimuth Distance (km) Brightness Sun altitude
Rises 18:24:50 0° 189° (S) 2,847 7.1 -23.3°
Reaches altitude 10° 18:27:02 10° 190° (S) 1,951 6.3 -23.6°
Maximum altitude 18:31:21 83° 276° (W) 621 3.5 -24.4°
Enters shadow 18:31:37 77° 335° (NNW) 632 3.5 -24.5°
